Starlink 3240

operational
NORAD ID: 49728 Int'l Des: 2021-115 Owner: SPXS Country: US Constellation: starlink
LEOCIRCULAR

About Starlink 3240

Description loading...

Live Position

Loading 3D Globe...

Upcoming Passes

Altitude History

Altitude vs Time

uPlot chart will show altitude changes over time

Two-Line Element Set

1 49728U 21115E 25304.59806273 .00001230 00000-0 95322-4 0 9995
2 49728 53.2194 18.6355 0001512 88.0434 272.0731 15.08843637215904
Epoch: Oct 31, 2025 • Age: 10 hours

Current Status

Altitude 543.0 km
Velocity 7.59 km/s
Sub-Earth Point -11.04°S, 153.27°E
Launch Date Dec 2, 2021
Age 3.9 years
Type internet

Technical Details

Classification Payload
Mass 290.00 kg
Dry Mass 270.00 kg
Total Mass 290.00 kg
Length 0.20 m
Diameter 2.80 m
Span 9.00 m
Shape Box + pan
Manufacturer SPXS
Bus Type Starlink
Phase Status In Orbit
Owner/State SPXS/US

Large Constellations

Loading constellations...